Middletown, OH

6:23 AM EST on February 18, 2018 (GMT -0500)
Hook Field Municipal

Weather History for KMWO - March, 2014

Change the Weather History Date:

Wednesday, March 19, 2014

  Actual Average (KFFO) Record (KFFO)
Temperature  
Mean Temperature 46 °F -  
Max Temperature 55 °F 48 °F 81 °F (2012)
Min Temperature 37 °F 28 °F 21 °F (2006)
Degree Days  
Heating Degree Days 19    
Moisture  
Dew Point 40 °F    
Average Humidity 75    
Maximum Humidity 86    
Minimum Humidity 60    
Precipitation  
Precipitation 0.00 in - - ()
Sea Level Pressure  
Sea Level Pressure 29.85 in    
Wind  
Wind Speed 11 mph (SW)    
Max Wind Speed 24 mph    
Max Gust Speed 32 mph    
Visibility 8 miles    
Events Rain    
Averages and records for this station are not official NWS values.
T = Trace of Precipitation, MM = Missing Value Source: NWS Daily Summary

Daily Weather History Graph

Daily Weather History Graph

Search for Another Location

Airport or City:

Trip Planner

Search our weather history database for the weather conditions in past years. The results will help you decide how hot, cold, wet, or windy it might be!

Date:

Astronomy

Mar. 19, 2014 Rise Set
Actual Time 7:42 AM EDT 7:48 PM EDT
Civil Twilight 7:15 AM EDT 8:15 PM EDT
Nautical Twilight 6:44 AM EDT 8:46 PM EDT
Astronomical Twilight 6:12 AM EDT 9:18 PM EDT
Moon 11:05 PM EDT (3/19) 9:08 AM EDT (3/19)
Length of Visible Light 12h 59m
Length of Day
12h 05m
Waning Gibbous, 91% of the Moon is Illuminated
Mar 19
Waning Gibbous
Mar 23
Last Quarter
Mar 30
New
Apr 7
First Quarter
Apr 15
Full

Hourly Weather History & Observations

Time (EDT) Temp. Windchill Dew Point Humidity Pressure Visibility Wind Dir Wind Speed Gust Speed Precip Events Conditions
12:15 AM 37.6 °F - 32.9 °F 83% 29.85 in 10.0 mi Calm Calm - N/A   Clear
12:35 AM 37.6 °F - 33.1 °F 84% 29.85 in 10.0 mi Calm Calm - N/A   Scattered Clouds
12:55 AM 37.6 °F - 33.1 °F 84% 29.85 in 10.0 mi Calm Calm - N/A   Scattered Clouds
1:15 AM 37.6 °F - 33.3 °F 84% 29.85 in 10.0 mi Calm Calm - N/A   Scattered Clouds
1:35 AM 41.9 °F 38.2 °F 36.9 °F 82% 29.87 in 10.0 mi WSW 5.8 mph - N/A   Overcast
1:55 AM 45.1 °F 41.4 °F 38.7 °F 78% 29.85 in 10.0 mi SSW 6.9 mph - N/A   Overcast
2:15 AM 45.1 °F 41.4 °F 37.6 °F 75% 29.85 in 10.0 mi SSW 6.9 mph - N/A   Mostly Cloudy
2:35 AM 47.5 °F - 40.3 °F 76% 29.85 in 10.0 mi South 9.2 mph - N/A   Scattered Clouds
2:55 AM 47.7 °F - 40.1 °F 75% 29.85 in 10.0 mi South 10.4 mph - N/A   Mostly Cloudy
3:15 AM 47.7 °F - 39.6 °F 73% 29.85 in 10.0 mi SSW 13.8 mph 18.4 mph N/A   Overcast
3:35 AM 47.7 °F - 39.7 °F 74% 29.85 in 10.0 mi SSW 12.7 mph - N/A   Overcast
3:55 AM 49.1 °F - 40.5 °F 72% 29.84 in 10.0 mi SSW 18.4 mph 24.2 mph N/A   Overcast
4:15 AM 50.2 °F - 40.5 °F 69% 29.84 in 10.0 mi SW 24.2 mph 32.2 mph N/A   Overcast
4:35 AM 50.2 °F - 40.5 °F 69% 29.84 in 10.0 mi SSW 13.8 mph 23.0 mph N/A   Overcast
4:55 AM 49.5 °F - 39.6 °F 69% 29.83 in 10.0 mi SSW 16.1 mph 23.0 mph N/A   Overcast
5:15 AM 49.1 °F - 39.0 °F 68% 29.83 in 10.0 mi SSW 18.4 mph 26.5 mph N/A   Overcast
5:35 AM 49.1 °F - 38.8 °F 68% 29.84 in 10.0 mi SSW 16.1 mph 20.7 mph N/A   Overcast
5:55 AM 49.1 °F - 39.2 °F 69% 29.83 in 10.0 mi SSW 16.1 mph 25.3 mph N/A   Overcast
6:15 AM 49.1 °F - 39.0 °F 68% 29.83 in 10.0 mi SSW 16.1 mph 24.2 mph N/A   Overcast
6:35 AM 49.1 °F - 39.0 °F 68% 29.83 in 10.0 mi SSW 16.1 mph 20.7 mph N/A   Overcast
6:55 AM 47.7 °F - 39.4 °F 73% 29.84 in 10.0 mi South 16.1 mph 24.2 mph N/A Rain Light Rain
7:15 AM 47.7 °F - 40.3 °F 76% 29.84 in 7.0 mi SSW 12.7 mph - N/A   Unknown
7:35 AM 47.7 °F - 41.5 °F 79% 29.82 in 5.0 mi South 13.8 mph 17.3 mph N/A   Unknown
7:55 AM 47.7 °F - 41.5 °F 79% 29.84 in 5.0 mi SSW 15.0 mph 23.0 mph N/A   Unknown
8:15 AM 47.7 °F - 41.9 °F 80% 29.83 in 4.0 mi South 16.1 mph 19.6 mph N/A   Unknown
8:35 AM 47.7 °F - 42.3 °F 82% 29.80 in 3.0 mi South 17.3 mph 23.0 mph N/A   Unknown
8:55 AM 47.7 °F - 42.8 °F 83% 29.81 in 5.0 mi South 15.0 mph 24.2 mph N/A   Unknown
9:15 AM 47.7 °F - 42.8 °F 83% 29.78 in 3.0 mi South 17.3 mph 25.3 mph N/A   Unknown
9:35 AM 47.7 °F - 42.8 °F 83% 29.79 in 10.0 mi SSW 16.1 mph 24.2 mph N/A   Overcast
9:55 AM 47.7 °F - 42.3 °F 82% 29.81 in 10.0 mi SSW 18.4 mph - N/A   Light Drizzle
10:15 AM 47.7 °F - 42.8 °F 83% 29.81 in 5.0 mi SSW 15.0 mph - N/A   Light Drizzle
10:35 AM 47.7 °F - 42.8 °F 83% 29.81 in 7.0 mi SSW 13.8 mph - N/A   Overcast
10:55 AM 47.7 °F - 42.8 °F 83% 29.81 in 10.0 mi SSW 12.7 mph - N/A   Overcast
11:15 AM 47.7 °F - 42.8 °F 83% 29.80 in 5.0 mi South 15.0 mph 19.6 mph N/A   Haze
11:35 AM 47.7 °F - 43.2 °F 84% 29.80 in 3.0 mi SSW 13.8 mph - N/A   Haze
11:55 AM 47.7 °F - 43.3 °F 85% 29.80 in 3.0 mi SSW 10.4 mph - N/A   Haze
12:15 PM 47.7 °F - 43.7 °F 86% 29.79 in 4.0 mi SSW 13.8 mph 20.7 mph N/A   Overcast
12:35 PM 47.7 °F - 43.7 °F 86% 29.79 in 3.0 mi SSW 15.0 mph - N/A   Overcast
12:55 PM 47.7 °F - 43.7 °F 86% 29.79 in 3.0 mi SSW 11.5 mph 19.6 mph N/A   Overcast
1:15 PM 47.7 °F - 43.7 °F 86% 29.79 in 3.0 mi SSW 12.7 mph - N/A   Drizzle
1:35 PM 49.1 °F - 44.8 °F 85% 29.78 in 4.0 mi SSW 15.0 mph 19.6 mph N/A   Light Drizzle
1:55 PM 50.2 °F - 46.0 °F 86% 29.78 in 5.0 mi SSW 15.0 mph 20.7 mph N/A   Overcast
2:15 PM 52.7 °F - 48.2 °F 85% 29.78 in 10.0 mi SW 16.1 mph 24.2 mph N/A   Overcast
2:35 PM 52.7 °F - 47.3 °F 82% 29.78 in 7.0 mi SW 21.9 mph 27.6 mph N/A   Overcast
2:55 PM 52.7 °F - 47.7 °F 83% 29.78 in 5.0 mi WSW 13.8 mph 24.2 mph N/A   Drizzle
3:15 PM 52.7 °F - 47.8 °F 84% 29.78 in 10.0 mi SW 17.3 mph 21.9 mph N/A   Overcast
3:35 PM 52.7 °F - 46.4 °F 79% 29.77 in 10.0 mi WSW 17.3 mph 25.3 mph N/A   Overcast
3:55 PM 52.7 °F - 45.3 °F 76% 29.78 in 10.0 mi WSW 16.1 mph 23.0 mph N/A   Overcast
4:15 PM 55.4 °F - 46.0 °F 71% 29.78 in 10.0 mi WSW 19.6 mph 27.6 mph N/A   Overcast
4:35 PM 55.4 °F - 44.6 °F 67% 29.78 in 10.0 mi WSW 12.7 mph 25.3 mph N/A   Overcast
4:55 PM 52.7 °F - 42.3 °F 68% 29.79 in 10.0 mi WSW 18.4 mph 27.6 mph N/A Rain Light Rain
5:15 PM 52.7 °F - 43.5 °F 71% 29.80 in 10.0 mi West 23.0 mph 28.8 mph N/A   Mostly Cloudy
5:35 PM 52.7 °F - 43.5 °F 71% 29.82 in 10.0 mi WNW 21.9 mph 31.1 mph N/A   Overcast
5:55 PM 50.2 °F - 41.7 °F 73% 29.83 in 10.0 mi West 18.4 mph 27.6 mph N/A   Mostly Cloudy
6:15 PM 50.2 °F - 40.1 °F 68% 29.85 in 10.0 mi West 19.6 mph 24.2 mph N/A   Mostly Cloudy
6:35 PM 50.0 °F - 38.3 °F 64% 29.87 in 10.0 mi West 20.7 mph 27.6 mph N/A   Overcast
6:55 PM 47.8 °F - 34.5 °F 60% 29.88 in 10.0 mi West 12.7 mph 23.0 mph N/A   Overcast
7:15 PM 47.7 °F - 34.2 °F 60% 29.90 in 10.0 mi West 17.3 mph 32.2 mph N/A   Overcast
7:35 PM 47.7 °F - 34.9 °F 61% 29.91 in 10.0 mi West 16.1 mph 24.2 mph N/A   Overcast
7:55 PM 47.7 °F - 36.0 °F 64% 29.93 in 10.0 mi West 16.1 mph 24.2 mph N/A   Overcast
8:15 PM 47.7 °F - 37.0 °F 67% 29.94 in 10.0 mi WNW 17.3 mph 25.3 mph N/A   Overcast
8:35 PM 45.1 °F 38.8 °F 34.3 °F 66% 29.96 in 10.0 mi WNW 13.8 mph 24.2 mph N/A   Overcast
8:55 PM 45.1 °F 38.8 °F 34.3 °F 66% 29.97 in 10.0 mi West 13.8 mph 24.2 mph N/A   Overcast
9:15 PM 45.1 °F 38.4 °F 34.0 °F 65% 29.98 in 10.0 mi WNW 15.0 mph 23.0 mph N/A   Overcast
9:35 PM 43.0 °F 36.4 °F 32.2 °F 66% 29.98 in 10.0 mi West 12.7 mph 26.5 mph N/A   Overcast
9:55 PM 42.8 °F 34.8 °F 32.0 °F 66% 29.99 in 10.0 mi West 17.3 mph 25.3 mph N/A   Overcast
10:15 PM 41.7 °F 35.2 °F 31.3 °F 66% 30.00 in 10.0 mi WNW 11.5 mph 21.9 mph N/A   Overcast
10:35 PM 41.4 °F 34.3 °F 31.1 °F 67% 30.00 in 10.0 mi WNW 12.7 mph - N/A   Overcast
10:55 PM 40.6 °F 34.3 °F 31.1 °F 69% 30.01 in 10.0 mi West 10.4 mph 16.1 mph N/A   Overcast
11:15 PM 40.6 °F 31.4 °F 31.1 °F 69% 30.02 in 7.0 mi West 19.6 mph 23.0 mph N/A   Overcast
11:35 PM 40.1 °F 31.6 °F 30.6 °F 69% 30.02 in 10.0 mi West 16.1 mph 23.0 mph N/A   Overcast
11:55 PM 40.1 °F 31.0 °F 30.0 °F 67% 30.03 in 10.0 mi West 18.4 mph 26.5 mph N/A   Overcast